User: anonymous   Login
Location: Caltech
(34.1382°N, 118.1253°W)
Time: 09:10:02
(UTC-08:00)
Language:

Cosmos 1980 Rocket - Orbit

View from above orbital plane
View from above orbital plane
View from above satellite
View from above satellite

Ground track
Ground track

The orbit data is extracted from the following two-line orbital elements,

1 19650U 88102B   14331.09694037  .00000103  00000-0  76963-4 0  4387
2 19650 070.9980 177.0275 0013551 171.0622 333.3711 14.15685007343939
Epoch (UTC): 27 November 2014 02:19:35
Eccentricity: 0.0013551
inclination: 70.9980°
perigee height: 830 km
apogee height: 850 km
right ascension of ascending node: 177.0275°
argument of perigee: 171.0622°
revolutions per day: 14.15685007
mean anomaly at epoch: 333.3711°
orbit number at epoch: 34393

The dashed part of the orbit path shows where the satellite is in the earth's shadow,  

DLR